User: anonymous   Login
Location: Unspecified
(0.0000°N, 0.0000°E)
Time: 23:02:56
(UTC+02:00)
Language:

Cosmos 1733 Rocket - Orbit

View from above orbital plane
View from above orbital plane
View from above satellite
View from above satellite

Ground track
Ground track

The orbit data is extracted from the following two-line orbital elements,

1 16612U 86018B   17178.89682927 +.00000081 +00000-0 +67025-5 0  9998
2 16612 082.5178 286.3756 0019122 115.7694 023.5843 14.84151550571949
Epoch (UTC): 27 June 2017 21:31:26
Eccentricity: 0.0019122
inclination: 82.5178°
perigee height: 603 km
apogee height: 629 km
right ascension of ascending node: 286.3756°
argument of perigee: 115.7694°
revolutions per day: 14.84151550
mean anomaly at epoch: 23.5843°
orbit number at epoch: 57194

The dashed part of the orbit path shows where the satellite is in the earth's shadow,  

DLR